STARLINK-32864, 62862

Orbit data source: Space-Track

STARLINK-32864, 62862 is a payload satellite owned by SpaceX/Seattle (US) in LEO that was launched on Sat, 01 Feb 2025 UTC via an FALCON 9 launch vehicle from the Air Force Western Test Range (AFWTR). Payload-class satellites include a variety of spacecraft equipped with specific instruments for various scientific and technological missions. These include communications satellites like Starlink; space stations such as the ISS; scientific satellites like the Hubble; Earth observation satellites from companies like Planet Labs, Umbra, and HawkEye 360; GPS; miniature CubeSats for education and research; and military/defense satellites.

Loading next visibility...
Identifier
62862, 2025-022J
Orbit
LEO
Last TLE update
1 day ago
Origin
Manufacturer
SpaceX/Seattle
Mission
Operational Commercial Communications
Bus & Motor
STARLINK V2M, Unknown motor
Mass
730 kg wet, ~700 kg dry
Launch date (UTC)
2025-02-01 (3 months ago)
Launch vehicle
FALCON 9
Launch site
Air Force Western Test Range (AFWTR)
Object type
Payload
Rocket body
Debris
Shape & HBR
Box + 2 Pan, 29 m
Radar Cross Section
33.884 m², Large (>1 m²)

Expand to show TLE details & history

TLE from 1 day ago
0 STARLINK-32864
1 62862U 25022J   25128.20629732  .00000841  00000-0  31018-4 0  9994
2 62862  53.1612 112.4935 0001434  90.6292 269.4877 15.39616503 15074
Epoch: 2025-05-08T04:57Z
Definitive object data (Epoch: 2025-05-08T04:57:04.088Z)
Latitude
-0.00004°
Longitude
171.94632°
Altitude
448.155 km
Speed
7.645 km/s
True Right ascension
07h 29m 58s
True Declination
0° 00' 00"
Sunlit
Object was in daylight at TLE epoch
Visualization TLE readout
Latitude
50.78856°
Longitude
-79.27898°
Altitude
452.27 km
Speed
7.648 km/s
Apparent Right ascension
08h 03m 46s
Apparent Declination
35° 59' 24"
Sunlit
Object is in full shadow
Visualization observer readout
Local Sidereal Time
16:02:28
Azimuth
315.194° NNW
Elevation
4.003°
Doppler factor
1
Orbital elements
Apogee altitude
448.479 km
Perigee altitude
446.521 km
Semi-major axis
6,825.637 km
Eccentricity
0.0001434
Inclination
53.1612°
RAAN
112.4935°
Arg. of periapsis
90.6292°
True anomaly
269.47127°
Mean anomaly
269.4877°
Eccentric anomaly
269.47948°
Mean motion
3.84883 °/min
BSTAR
0.000031018
Orbital period
93.53 mins
Loading maneuver chart data...
Loading SW <> Apogee altitude chart data...
Loading historical data...
Loading historical data...
Loading historical data...
Loading historical data...
Loading historical data...
Loading historical data...
Loading historical data...

STARLINK-32864 Visibility forecast

Observer location: undefined°, undefined°

Span
Click to sort rows by Start time (UTC) header in descending order
Start Az.
Max El. time (UTC)
Max El. Az.
Max El.
End time (UTC)
End Az.
6 mins2025-05-09 07:55:24.157Z322.946° NNW2025-05-09 07:58:24.157Z61.443° ENE36.203°2025-05-09 08:01:24.157Z112.98° SE
4 mins2025-05-10 00:45:24.157Z191.743° SSW2025-05-10 00:47:24.157Z117.378° SE33.23°2025-05-10 00:49:24.157Z69.221° E
4 mins2025-05-10 02:23:24.157Z302.029° NW2025-05-10 02:24:24.157Z329.433° NNW23.067°2025-05-10 02:27:24.157Z29.291° NE
5 mins2025-05-10 07:17:24.157Z334.225° NNW2025-05-10 07:19:24.157Z29.263° NE30.816°2025-05-10 07:22:24.157Z99.909° ESE
|